Airfield :
LOGIN :

Register | Disclaimer

   EN    FR    IT 

 










Legend :    VFR   Marginal VFR   IFR   Intensive IFR   Very Intensive IFR
Visi :
Ceiling :
>= 8 km
>= 3000ft
5 to 8 km
1000 to 3000 ft
1500m to 5 km
500 to 1000 ft
800 to 1500m
200 to 500 ft
< 800m
< 200 ft
Symbols :   Thunderstorms  Fog  Heavy snow  Heavy precipitations  Wind > 20 kt
SIGMETs :     Misc.  Thunderstorms  Icing  Turbulence  Mountain Waves  Volcanic Ashes







- Airport Elevation : 117 ft
- IATA code : NWI
- Download approach charts


EGSH - Norwich

CURRENT METAR :
  • 171050Z 24009KT 180V290 9999 SCT031 20/12 Q1019 NOSIG

EXPIRED METARs :
  • 171020Z 23008KT 180V270 9999 SCT031 19/11 Q1019
  • 170950Z 22008KT 190V270 9999 FEW025 19/12 Q1019 NOSIG
  • 170920Z 25006KT 220V280 9999 FEW015 18/13 Q1019 NOSIG
  • 170850Z 25006KT 220V280 CAVOK 17/13 Q1019 NOSIG
  • 170820Z 25006KT 210V290 CAVOK 16/13 Q1019 NOSIG

TAF TAF EGSH
Valid from the 17 at 09:00 until the 17 at 18:00 UTC


170756Z 1709/1718 24004KT 9999 FEW035
ATIS : +44 1603 420 640
No reported NOTAMs for that airfield.



MET'MAP, your aeronautical weather chart ! - Copyright ORBIFLY December 2007 - Disclaimer

ORBIFLY MET'MAP TEAM :

Programming & Development : Alexandra Zaïnal
Concept & Development : Baudouin d'Aumeries
Co-Development & Prog : Marc-Olivier Méhu
Technical & hardware support : Manuel Goepfert

Contact : metmap@orbifly.com




SOURCES & CREDITS :

   NOAA